DH2PG-6 Weather Reports


Display with metric or nautical units.
time (UTC)temp
F
wind
direction
speed
MPH
gust
MPH
rain 1hr
in
rain 24hr
in
rain mn
in
humidity
%
barometer
mb
20260507140313 60 45 0.0 0.0 0.00 0.00 0.00 63 1011.8
20260507135813 60 22 0.0 0.0 0.00 0.02 0.00 65 1011.8
20260507135312 59 22 0.0 0.0 0.00 0.02 0.00 66 1011.9
20260507134812 58 22 0.0 0.0 0.00 0.02 0.00 67 1011.9
20260507134312 57 22 0.0 0.0 0.00 0.02 0.00 68 1011.9
20260507133812 57 337 0.0 0.0 0.00 0.02 0.00 68 1011.9
20260507133311 56 45 0.0 0.0 0.00 0.02 0.00 70 1012.0
20260507132311 55 0 0.0 0.0 0.00 0.02 0.00 71 1012.0
20260507131810 55 337 0.0 0.0 0.00 0.02 0.00 72 1012.0
20260507131310 55 22 0.0 0.0 0.00 0.02 0.00 72 1011.9
20260507130310 54 0 0.0 0.0 0.00 0.02 0.00 73 1011.7
20260507125809 54 22 0.0 0.0 0.00 0.02 0.00 74 1011.7
20260507125309 53 22 0.0 0.0 0.00 0.02 0.00 74 1011.8
20260507124809 53 22 0.0 0.0 0.00 0.02 0.00 74 1011.9
20260507124308 53 22 0.0 0.0 0.00 0.02 0.00 74 1011.7
20260507123808 52 337 0.0 0.0 0.00 0.02 0.00 75 1011.8
20260507123308 52 337 0.0 0.0 0.00 0.02 0.00 74 1011.8
20260507122308 52 315 0.0 0.0 0.00 0.02 0.00 73 1011.8
20260507121807 53 337 0.0 0.0 0.00 0.02 0.00 73 1011.7
20260507121307 54 315 0.0 0.0 0.00 0.02 0.00 72 1011.8
20260507115806 55 22 0.0 0.0 0.00 0.02 0.00 69 1011.6
20260507115307 55 0 0.0 0.0 0.00 0.02 0.00 70 1011.6
20260507114805 56 0 0.0 0.0 0.00 0.02 0.00 70 1011.5
20260507114305 56 292 0.0 0.0 0.00 0.02 0.00 70 1011.5
20260507113305 55 22 0.0 0.0 0.00 0.02 0.00 71 1011.4
20260507112307 55 45 0.0 0.0 0.00 0.02 0.00 71 1011.4
20260507111804 55 22 0.0 0.0 0.00 0.02 0.00 73 1011.4
20260507110303 54 0 0.0 0.0 0.00 0.02 0.00 74 1011.6
20260507105803 54 0 0.0 0.0 0.00 0.02 0.00 75 1011.6
20260507105306 53 337 0.0 0.0 0.00 0.02 0.00 74 1011.4
20260507104802 54 337 0.0 0.0 0.00 0.02 0.00 74 1011.5
20260507104302 54 22 0.0 0.0 0.00 0.02 0.00 74 1011.4
20260507103802 54 22 0.0 0.0 0.00 0.02 0.00 74 1011.5
20260507103301 54 315 0.0 0.0 0.00 0.02 0.00 76 1011.4
20260507102801 54 0 0.0 0.0 0.00 0.02 0.00 76 1011.4
20260507102301 54 0 0.0 0.0 0.00 0.02 0.00 74 1011.4
20260507101800 54 0 0.0 0.0 0.00 0.02 0.00 74 1011.4
20260507101300 54 0 0.0 0.0 0.00 0.02 0.00 74 1011.4
20260507100259 54 45 0.0 0.0 0.00 0.02 0.00 77 1011.3
20260507095759 54 45 0.0 0.0 0.00 0.02 0.00 77 1011.3
20260507095259 53 22 0.0 0.0 0.00 0.02 0.00 77 1011.3
20260507094759 53 22 0.0 0.0 0.00 0.02 0.00 78 1011.4
20260507093758 52 45 0.0 0.0 0.00 0.02 0.00 79 1011.3
20260507093258 52 22 0.0 0.0 0.00 0.02 0.00 80 1011.2
20260507092758 51 22 0.0 0.0 0.00 0.02 0.00 81 1011.1
20260507092257 50 337 0.0 0.0 0.00 0.02 0.00 81 1011.0
20260507091757 50 0 0.0 0.0 0.00 0.02 0.00 80 1011.0
20260507091257 51 337 0.0 0.0 0.00 0.02 0.00 80 1011.0
20260507090756 51 22 0.0 0.0 0.00 0.02 0.00 81 1010.9
20260507090256 51 22 0.0 0.0 0.00 0.02 0.00 81 1010.9
20260507085756 51 22 0.0 0.0 0.00 0.02 0.00 81 1010.8
20260507085256 51 22 0.0 0.0 0.00 0.02 0.00 81 1010.9
20260507084755 50 0 0.0 0.0 0.00 0.02 0.00 82 1010.8
20260507084255 50 0 0.0 0.0 0.00 0.02 0.00 82 1010.8
20260507083755 50 22 0.0 0.0 0.00 0.02 0.00 83 1010.9
20260507083254 50 0 0.0 0.0 0.00 0.02 0.00 83 1010.8
20260507082754 49 22 0.0 0.0 0.00 0.02 0.00 85 1010.8
20260507082254 49 0 0.0 0.0 0.00 0.02 0.00 84 1010.7
20260507081253 48 315 0.0 0.0 0.00 0.02 0.00 85 1010.4
20260507080753 48 337 0.0 0.0 0.00 0.02 0.00 86 1010.3
20260507080253 48 337 0.0 0.0 0.00 0.02 0.00 86 1010.1
20260507075752 48 0 0.0 0.0 0.00 0.04 0.00 87 1010.2
20260507075252 47 337 0.0 0.0 0.00 0.04 0.00 88 1010.3
20260507074752 47 315 0.0 0.0 0.00 0.04 0.00 88 1010.2
20260507074252 46 337 0.0 0.0 0.00 0.04 0.00 89 1010.2
20260507073751 46 337 0.0 0.0 0.00 0.04 0.00 89 1010.1
20260507073251 46 337 0.0 0.0 0.00 0.04 0.00 89 1010.1
20260507072751 46 337 0.0 0.0 0.00 0.04 0.00 89 1010.2
20260507072251 46 337 0.0 0.0 0.00 0.04 0.00 90 1010.0
20260507071750 45 337 0.0 0.0 0.00 0.04 0.00 90 1010.1
20260507071539 45 337 0.0 0.0 0.00 0.04 0.00 90 1010.0
20260507071250 45 337 0.0 0.0 0.00 0.04 0.00 90 1010.0
20260507070750 45 337 0.0 0.0 0.00 0.04 0.00 91 1010.1
20260507070249 45 337 0.0 0.0 0.00 0.04 0.00 91 1010.0
20260507065749 45 337 0.0 0.0 0.00 0.04 0.00 91 1009.9
20260507065249 45 337 0.0 0.0 0.00 0.04 0.00 91 1010.0
20260507064248 44 337 0.0 0.0 0.00 0.04 0.00 92 1009.7
20260507063748 44 337 0.0 0.0 0.00 0.04 0.00 92 1009.9
20260507063248 44 337 0.0 0.0 0.00 0.04 0.00 92 1009.7
20260507062747 43 337 0.0 0.0 0.00 0.04 0.00 92 1009.7
20260507062247 43 337 0.0 0.0 0.00 0.04 0.00 92 1009.8
20260507061747 43 337 0.0 0.0 0.00 0.04 0.00 92 1009.8
20260507061247 43 337 0.0 0.0 0.00 0.04 0.00 92 1009.9
20260507060746 43 337 0.0 0.0 0.00 0.04 0.00 91 1009.9
20260507060246 43 337 0.0 0.0 0.00 0.04 0.00 91 1009.9
20260507055746 43 337 0.0 0.0 0.00 0.04 0.00 91 1009.8
20260507055245 43 337 0.0 0.0 0.00 0.04 0.00 91 1009.8
20260507054745 42 337 0.0 0.0 0.00 0.04 0.00 91 1009.7
20260507053745 42 337 0.0 0.0 0.00 0.04 0.00 91 1009.4
20260507053244 42 337 0.0 0.0 0.00 0.04 0.00 91 1009.4
20260507052744 42 337 0.0 0.0 0.00 0.04 0.00 91 1009.3
20260507052244 42 337 0.0 0.0 0.00 0.04 0.00 91 1009.3
20260507051243 42 337 0.0 0.0 0.00 0.04 0.00 91 1009.0
20260507050743 42 337 0.0 0.0 0.00 0.04 0.00 91 1009.0
20260507050243 42 337 0.0 0.0 0.00 0.04 0.00 91 1008.9
20260507045243 42 337 0.0 0.0 0.00 0.04 0.00 91 1008.9
20260507044742 42 337 0.0 0.0 0.00 0.04 0.00 91 1008.9
20260507044242 42 337 0.0 0.0 0.00 0.04 0.00 91 1008.8
20260507043741 42 337 0.0 0.0 0.00 0.04 0.00 91 1008.8
20260507043241 42 337 0.0 0.0 0.00 0.04 0.00 91 1008.8
20260507042741 42 337 0.0 0.0 0.00 0.04 0.00 91 1008.7
20260507041740 42 337 0.0 0.0 0.00 0.04 0.00 91 1008.7
20260507041240 42 337 0.0 0.0 0.00 0.04 0.00 91 1008.6
20260507040740 42 337 0.0 0.0 0.00 0.04 0.00 91 1008.6
20260507040239 42 337 0.0 0.0 0.00 0.04 0.00 91 1008.4
20260507035739 42 337 0.0 0.0 0.00 0.04 0.00 91 1008.4
20260507035239 42 337 0.0 0.0 0.00 0.04 0.00 91 1008.4
20260507034745 42 337 0.0 0.0 0.00 0.04 0.00 91 1008.4
20260507034738 42 337 0.0 0.0 0.00 0.04 0.00 91 1008.4
20260507034238 42 337 0.0 0.0 0.00 0.04 0.00 91 1008.5
20260507033738 42 337 0.0 0.0 0.00 0.04 0.00 91 1008.4
20260507033238 42 337 0.0 0.0 0.00 0.04 0.00 91 1008.4
20260507032737 42 337 0.0 0.0 0.00 0.04 0.00 91 1008.3
20260507032237 43 337 0.0 0.0 0.00 0.04 0.00 91 1008.4
20260507031737 43 337 0.0 0.0 0.00 0.04 0.00 91 1008.1
20260507031242 43 337 0.0 0.0 0.00 0.04 0.00 91 1008.2
20260507031236 43 337 0.0 0.0 0.00 0.04 0.00 91 1008.2
20260507030736 43 337 0.0 0.0 0.00 0.04 0.00 91 1008.1
20260507030236 43 337 0.0 0.0 0.00 0.04 0.00 91 1008.0
20260507025736 43 337 0.0 0.0 0.00 0.04 0.00 91 1007.9
20260507025236 43 337 0.0 0.0 0.00 0.04 0.00 91 1007.9
20260507024735 43 337 0.0 0.0 0.00 0.04 0.00 91 1007.8
20260507024235 43 337 0.0 0.0 0.00 0.04 0.00 91 1007.9
20260507023234 43 337 0.0 0.0 0.00 0.04 0.00 91 1007.8
20260507022734 43 337 0.0 0.0 0.00 0.04 0.00 92 1007.9
20260507022234 43 337 0.0 0.0 0.00 0.04 0.00 92 1007.9
20260507021233 43 337 0.0 0.0 0.00 0.04 0.00 92 1007.8
20260507020733 43 337 0.0 0.0 0.00 0.04 0.00 92 1007.8
20260507020233 43 337 0.0 0.0 0.00 0.04 0.00 92 1007.7
20260507015732 43 337 0.0 0.0 0.00 0.04 0.00 92 1007.8
20260507015232 43 337 0.0 0.0 0.00 0.04 0.00 92 1007.6
20260507014732 43 337 0.0 0.0 0.00 0.04 0.00 92 1007.6
20260507014231 43 337 0.0 0.0 0.00 0.04 0.00 92 1007.7
20260507013731 43 337 0.0 0.0 0.00 0.04 0.00 92 1007.6
20260507013231 43 337 0.0 0.0 0.00 0.04 0.00 92 1007.6
20260507012731 43 337 0.0 0.0 0.00 0.04 0.00 92 1007.7
20260507012230 43 337 0.0 0.0 0.00 0.04 0.00 92 1007.6
20260507011730 43 337 0.0 0.0 0.00 0.04 0.00 92 1007.6
20260507011230 43 337 0.0 0.0 0.00 0.04 0.00 91 1007.6
20260507010729 43 337 0.0 0.0 0.00 0.04 0.00 91 1007.6
20260507005729 43 337 0.0 0.0 0.00 0.08 0.00 91 1007.4
20260507005229 43 337 0.0 0.0 0.00 0.08 0.00 92 1007.4
20260507004228 43 337 0.0 0.0 0.00 0.08 0.00 92 1007.4
20260507003728 43 337 0.0 0.0 0.00 0.08 0.00 92 1007.3
20260507003227 43 337 0.0 0.0 0.00 0.08 0.00 92 1007.3
20260507002727 43 337 0.0 0.0 0.00 0.08 0.00 92 1007.2
20260507002227 43 337 0.0 0.0 0.00 0.08 0.00 92 1007.2
20260507001727 43 337 0.0 0.0 0.00 0.08 0.00 92 1007.3
20260507001226 43 337 0.0 0.0 0.00 0.08 0.00 92 1007.3
20260507000726 43 337 0.0 0.0 0.00 0.08 0.00 92 1007.2
20260507000226 43 337 0.0 0.0 0.00 0.08 0.00 92 1007.3
20260506235725 43 337 0.0 0.0 0.00 0.16 0.00 92 1007.2
20260506235225 43 337 0.0 0.0 0.00 0.16 0.00 92 1007.1
20260506234725 43 337 0.0 0.0 0.00 0.16 0.00 92 1007.1
20260506234225 43 337 0.0 0.0 0.00 0.16 0.00 92 1007.2
20260506233724 43 337 0.0 0.0 0.00 0.16 0.00 92 1007.2
20260506233224 43 337 0.0 0.0 0.00 0.16 0.00 92 1007.3
20260506232724 43 337 0.0 0.0 0.00 0.16 0.00 92 1007.2
20260506232224 43 337 0.0 0.0 0.00 0.16 0.00 91 1007.2
20260506231723 43 337 0.0 0.0 0.00 0.16 0.00 91 1007.2
20260506231223 43 337 0.0 0.0 0.00 0.16 0.00 91 1007.2
20260506230222 43 337 0.0 0.0 0.00 0.16 0.00 91 1007.2
20260506225722 43 337 0.0 0.0 0.00 0.18 0.00 91 1007.2
20260506225222 43 337 0.0 0.0 0.00 0.18 0.00 91 1007.1
20260506224722 43 337 0.0 0.0 0.00 0.18 0.00 91 1007.1
20260506224221 43 337 0.0 0.0 0.00 0.18 0.00 91 1007.2
20260506223721 43 337 0.0 0.0 0.00 0.18 0.00 91 1007.0
20260506223221 43 337 0.0 0.0 0.00 0.18 0.00 91 1007.2
20260506222720 43 337 0.0 0.0 0.00 0.18 0.00 91 1007.0
20260506222220 43 337 0.0 0.0 0.00 0.18 0.00 91 1007.0
20260506221720 43 337 0.0 0.0 0.00 0.18 0.00 91 1007.1
20260506221220 43 337 0.0 0.0 0.00 0.18 0.00 91 1007.1
20260506220719 43 337 0.0 0.0 0.00 0.18 0.00 91 1007.0
20260506220219 43 337 0.0 0.0 0.00 0.18 0.00 91 1006.9
20260506215719 43 337 0.0 0.0 0.00 0.20 0.00 91 1006.8
20260506215218 43 337 0.0 0.0 0.00 0.20 0.00 91 1006.8
20260506214718 43 337 0.0 0.0 0.00 0.20 0.00 91 1006.7
20260506214218 43 337 0.0 0.0 0.00 0.20 0.00 91 1006.7
20260506213718 43 337 0.0 0.0 0.00 0.20 0.00 91 1006.6
20260506213217 43 337 0.0 0.0 0.00 0.20 0.00 91 1006.5
20260506212717 43 337 0.0 0.0 0.00 0.20 0.00 91 1006.5
20260506212217 43 337 0.0 0.0 0.00 0.20 0.00 91 1006.3
20260506211717 43 337 0.0 0.0 0.00 0.20 0.00 91 1006.4
20260506211216 43 337 0.0 0.0 0.00 0.20 0.00 91 1006.3
20260506210716 43 337 0.0 0.0 0.00 0.20 0.00 91 1006.3
20260506210216 43 337 0.0 0.0 0.00 0.20 0.00 91 1006.3
20260506205715 43 337 0.0 0.0 0.00 0.22 0.00 91 1006.2
20260506205215 43 337 0.0 0.0 0.00 0.22 0.00 91 1006.2
20260506204715 43 337 0.0 0.0 0.00 0.22 0.00 91 1006.2
20260506204215 44 337 0.0 0.0 0.00 0.22 0.00 91 1006.2
20260506203714 44 337 0.0 0.0 0.00 0.22 0.00 91 1006.3
20260506203214 44 337 0.0 0.0 0.00 0.22 0.00 91 1006.3
20260506202714 44 337 0.0 0.0 0.00 0.22 0.00 91 1006.3
20260506202213 44 337 0.0 0.0 0.00 0.22 0.00 91 1006.2
20260506201713 44 337 0.0 0.0 0.00 0.22 0.00 91 1006.2
20260506201213 44 337 0.0 0.0 0.00 0.22 0.00 91 1006.3
20260506200713 44 337 0.0 0.0 0.00 0.22 0.00 91 1006.3
20260506200212 44 337 0.0 0.0 0.00 0.22 0.00 91 1006.2
20260506195212 44 337 0.0 0.0 0.00 0.24 0.00 91 1006.1
20260506194711 44 337 0.0 0.0 0.00 0.24 0.00 91 1006.0
20260506194211 44 337 0.0 0.0 0.00 0.24 0.00 91 1005.9
20260506193711 44 337 0.0 0.0 0.00 0.24 0.00 91 1005.8
20260506193211 44 337 0.0 0.0 0.00 0.24 0.00 91 1005.6
20260506192710 44 337 0.0 0.0 0.00 0.24 0.00 91 1005.7
20260506192210 44 337 0.0 0.0 0.00 0.24 0.00 91 1005.7
20260506191745 44 337 0.0 0.0 0.00 0.24 0.00 91 1005.6
20260506191710 44 337 0.0 0.0 0.00 0.24 0.00 91 1005.6
20260506191210 44 337 0.0 0.0 0.00 0.24 0.00 91 1005.6
20260506190709 44 337 0.0 0.0 0.00 0.24 0.00 91 1005.3
20260506190209 44 337 0.0 0.0 0.00 0.24 0.00 91 1005.2
20260506185709 44 337 0.0 0.0 0.00 0.24 0.00 91 1005.2
20260506185208 44 337 0.0 0.0 0.00 0.24 0.00 91 1005.2
20260506184708 44 337 0.0 0.0 0.00 0.24 0.00 91 1005.2
20260506184208 44 337 0.0 0.0 0.00 0.24 0.00 91 1005.0
20260506183708 44 337 0.0 0.0 0.00 0.24 0.00 91 1004.9
20260506183207 44 337 0.0 0.0 0.00 0.24 0.00 91 1004.9
20260506182707 44 315 0.0 0.0 0.00 0.24 0.00 91 1004.9
20260506182207 44 315 0.0 0.0 0.00 0.24 0.00 91 1004.9
20260506181706 44 0 0.0 0.0 0.00 0.24 0.00 91 1004.8
20260506181206 44 315 0.0 0.0 0.00 0.24 0.00 91 1004.6
20260506180206 45 315 0.0 0.0 0.00 0.24 0.00 90 1004.6
20260506175705 45 315 0.0 0.0 0.00 0.26 0.00 90 1004.7
20260506175205 45 315 0.0 0.0 0.00 0.26 0.00 90 1004.7
20260506174705 45 315 0.0 0.0 0.00 0.26 0.00 90 1004.7
20260506174204 45 315 0.0 0.0 0.00 0.26 0.00 90 1004.6
20260506173704 45 315 0.0 0.0 0.00 0.26 0.00 90 1004.8
20260506173204 45 315 0.0 0.0 0.00 0.26 0.00 90 1004.6
20260506172704 45 315 0.0 0.0 0.00 0.26 0.00 90 1004.6
20260506172203 45 315 0.0 0.0 0.00 0.26 0.00 90 1004.8
20260506171703 45 315 0.0 0.0 0.00 0.26 0.00 89 1004.8
20260506171203 46 315 0.0 0.0 0.00 0.26 0.00 89 1004.7
20260506170703 46 315 0.0 0.0 0.00 0.26 0.00 89 1004.8
20260506165702 46 315 0.0 0.0 0.00 0.28 0.00 89 1004.6
20260506165202 46 315 0.0 0.0 0.00 0.28 0.00 89 1004.5
20260506163201 46 315 0.0 0.0 0.00 0.28 0.00 89 1004.4
20260506162200 47 315 0.0 0.0 0.00 0.28 0.00 88 1004.6
20260506161700 47 315 0.0 0.0 0.00 0.28 0.00 88 1004.4
20260506161159 47 315 0.0 0.0 0.00 0.28 0.00 88 1004.3
20260506155158 48 337 0.0 0.0 0.00 0.30 0.00 89 1004.2
20260506154658 47 337 0.0 0.0 0.00 0.30 0.00 89 1004.2
20260506154158 48 337 0.0 0.0 0.02 0.30 0.00 89 1004.1
20260506152157 48 337 0.0 0.0 0.02 0.30 0.00 90 1004.0
20260506151656 48 315 0.0 0.0 0.02 0.30 0.00 90 1003.9
20260506151156 48 337 0.0 0.0 0.02 0.30 0.00 90 1004.0
20260506150656 48 337 0.0 0.0 0.02 0.30 0.00 91 1003.9
20260506145655 48 337 0.0 0.0 0.02 0.32 0.00 91 1004.0
20260506145155 48 337 0.0 0.0 0.02 0.32 0.00 91 1004.0
20260506144655 48 0 0.0 0.0 0.00 0.30 0.00 91 1004.0
20260506144154 48 315 0.0 0.0 0.00 0.30 0.00 91 1004.0
20260506143654 48 315 0.0 0.0 0.00 0.30 0.00 91 1004.0
20260506143154 48 315 0.0 0.0 0.00 0.30 0.00 90 1004.0
20260506142654 48 292 0.0 0.0 0.00 0.30 0.00 90 1004.0
20260506142153 48 315 0.0 0.0 0.00 0.30 0.00 90 1004.0
20260506141653 48 292 0.0 0.0 0.00 0.30 0.00 90 1004.0
20260506141153 48 315 0.0 0.0 0.00 0.30 0.00 90 1003.9